Regional Weather Roundup
Issued by NWS

Home | Current Version | Previous Version | Graphics & Text | Print | Product List | Glossary Off
Versions: 1 2 3 4 5 6 7 8 9 10 11 12 13 14 15 16 17 18 19 20 21 22 23 24 25 26 27 28 29 30 31 32 33 34 35 36 37 38 39 40 41 42 43 44 45 46 47 48 49 50

000
ASUS43 KFSD 212210
RWRSD

WEATHER ROUNDUP FOR SOUTH DAKOTA
NATIONAL WEATHER SERVICE SIOUX FALLS SD
500 PM CDT THU SEP 21 2017

NOTE: "FAIR" INDICATES FEW OR NO CLOUDS BELOW 12,000 FEET WITH NO
SIGNIFICANT WEATHER AND/OR OBSTRUCTIONS TO VISIBILITY.


SDZ001>005-009-010-012>017-212300-
NORTHWEST AND NORTH CENTRAL SOUTH DAKOTA

CITY           SKY/WX    TMP DP  RH WIND       PRES   REMARKS
BUFFALO          N/A     72  39  30 NE10      29.67S
FAITH            N/A     83  43  24 NW16      29.65R
MOBRIDGE       SUNNY     88  58  36 VRB7      29.59S
$$

SDZ012>016-024>037-041>051-057-063-072>074-212300-
SOUTHWEST AND SOUTH CENTRAL SOUTH DAKOTA

CITY           SKY/WX    TMP DP  RH WIND       PRES   REMARKS
RAPID CTY ARPT SUNNY     75  39  27 N18       29.69S
PIERRE         SUNNY     88  54  31 S15       29.58S
CUSTER         SUNNY     72  39  30 E20G25    29.77S
ELLSWORTH AFB  SUNNY     76  38  25 NW13      29.69S
PHILIP         SUNNY     92  41  17 NW10      29.59S
PINE RIDGE     SUNNY     91  32  12 SE13      29.63F
SPEARFISH      FAIR      68  39  34 N10       29.75F
WINNER         FAIR      88  57  34 S14       29.62F
$$

SDZ004>011-016>023-039-040-212300-
NORTHEAST SOUTH DAKOTA

CITY           SKY/WX    TMP DP  RH WIND       PRES   REMARKS
ABERDEEN       SUNNY     86  64  47 S16G23    29.62F
WATERTOWN      MOSUNNY   83  71  67 S17G25    29.67F
BROOKINGS      SUNNY     84  68  58 S23G32    29.68F
SISSETON         N/A     81  67  62 SE14      29.66F
$$

SDZ017-020-022-023-036>040-048>070-212300-
SOUTHEAST SOUTH DAKOTA

CITY           SKY/WX    TMP DP  RH WIND       PRES   REMARKS
SIOUX FALLS    MOSUNNY   86  71  60 S17G28    29.68F
HURON          MOSUNNY   84  68  58 S20       29.63F
CHAMBERLAIN    SUNNY     91  56  31 S21       29.61F
MITCHELL       SUNNY     88  65  46 S14G25    29.63F
YANKTON        SUNNY     89  70  53 SE20      29.65F
$$

ABBREVIATIONS USED IN REMARKS
   TC - TEMPERATURE IN CELSIUS
  WCI - WIND CHILL INDEX
   HX - HEAT INDEX
  VSB - VISIBILITY




USA.gov is the U.S. government's official web portal to all federal, state and local government web resources and services.